Time,TemperatureF,DewpointF,PressureIn,WindDirection,WindDirectionDegrees,WindSpeedMPH,WindSpeedGustMPH,Humidity,HourlyPrecipIn,Conditions,Clouds,dailyrainin,SoftwareType,DateUTC
2013-04-09 00:02:00,11.0,9.0,-100.00,NW,320,12.0,17.0,92,0.06,,,-99.99,,2013-04-09 06:02:00,
2013-04-09 00:12:00,11.0,9.0,-100.00,NW,320,13.0,16.0,92,0.06,,,-99.99,,2013-04-09 06:12:00,
2013-04-09 00:22:00,11.0,9.0,-100.00,NW,322,12.0,14.0,91,0.10,,,-99.99,,2013-04-09 06:22:00,
2013-04-09 00:32:00,10.0,8.0,-100.00,NW,325,14.0,16.0,91,0.11,,,-99.99,,2013-04-09 06:32:00,
2013-04-09 00:42:00,10.0,8.0,-100.00,NW,325,12.0,17.0,91,0.13,,,-99.99,,2013-04-09 06:42:00,
2013-04-09 00:52:00,10.0,8.0,-100.00,NW,323,15.0,17.0,91,0.10,,,-99.99,,2013-04-09 06:52:00,
2013-04-09 01:02:00,10.0,8.0,-100.00,NW,326,15.0,18.0,91,0.11,,,-99.99,,2013-04-09 07:02:00,
2013-04-09 01:11:00,10.0,8.0,-100.00,NNW,333,12.0,15.0,91,0.10,,,-99.99,,2013-04-09 07:11:00,
2013-04-09 01:21:00,10.0,8.0,-100.00,NW,326,12.0,17.0,91,0.07,,,-99.99,,2013-04-09 07:21:00,
2013-04-09 01:32:00,10.0,8.0,-100.00,NNW,328,11.0,12.0,92,0.06,,,-99.99,,2013-04-09 07:32:00,
2013-04-09 01:41:00,10.0,8.0,-100.00,NNW,335,12.0,14.0,91,0.08,,,-99.99,,2013-04-09 07:41:00,
2013-04-09 01:52:00,10.0,8.0,-100.00,NW,325,14.0,17.0,91,0.08,,,-99.99,,2013-04-09 07:52:00,
2013-04-09 02:02:00,10.0,8.0,-100.00,NW,320,16.0,19.0,91,0.07,,,-99.99,,2013-04-09 08:02:00,
2013-04-09 02:11:00,10.0,8.0,-100.00,NW,322,14.0,17.0,91,0.08,,,-99.99,,2013-04-09 08:11:00,
2013-04-09 02:21:00,10.0,8.0,-100.00,NW,325,13.0,16.0,91,0.10,,,-99.99,,2013-04-09 08:21:00,
2013-04-09 02:32:00,10.0,8.0,-100.00,NW,322,13.0,15.0,91,0.08,,,-99.99,,2013-04-09 08:32:00,
2013-04-09 02:42:00,10.0,8.0,-100.00,NW,322,14.0,16.0,91,0.08,,,-99.99,,2013-04-09 08:42:00,
2013-04-09 02:52:00,10.0,8.0,-100.00,NW,318,15.0,19.0,91,0.10,,,-99.99,,2013-04-09 08:52:00,
2013-04-09 03:01:00,10.0,8.0,-100.00,NW,318,14.0,17.0,91,0.08,,,-99.99,,2013-04-09 09:01:00,
2013-04-09 03:11:00,10.0,8.0,-100.00,NW,323,14.0,17.0,91,0.08,,,-99.99,,2013-04-09 09:11:00,
2013-04-09 03:21:00,10.0,8.0,-100.00,NNW,329,12.0,16.0,91,0.11,,,-99.99,,2013-04-09 09:21:00,
2013-04-09 03:32:00,10.0,8.0,-100.00,NNW,328,12.0,16.0,91,0.08,,,-99.99,,2013-04-09 09:32:00,
2013-04-09 03:43:00,9.0,8.0,-100.00,NNW,328,12.0,16.0,91,0.06,,,-99.99,,2013-04-09 09:43:00,
2013-04-09 03:52:00,9.0,8.0,-100.00,NW,326,15.0,18.0,91,0.08,,,-99.99,,2013-04-09 09:52:00,
2013-04-09 04:03:00,9.0,8.0,-100.00,NNW,335,15.0,18.0,91,0.07,,,-99.99,,2013-04-09 10:03:00,
2013-04-09 04:12:00,9.0,7.0,-100.00,NNW,330,14.0,17.0,91,0.13,,,-99.99,,2013-04-09 10:12:00,
2013-04-09 04:22:00,9.0,7.0,-100.00,NNW,332,14.0,18.0,91,0.08,,,-99.99,,2013-04-09 10:22:00,
2013-04-09 04:32:00,9.0,7.0,-100.00,NNW,330,12.0,16.0,91,0.07,,,-99.99,,2013-04-09 10:32:00,
2013-04-09 04:42:00,9.0,7.0,-100.00,NNW,329,13.0,17.0,91,0.06,,,-99.99,,2013-04-09 10:42:00,
2013-04-09 04:52:00,9.0,7.0,-100.00,NW,325,13.0,17.0,91,0.07,,,-99.99,,2013-04-09 10:52:00,
2013-04-09 05:02:00,9.0,7.0,-100.00,NW,325,15.0,18.0,91,0.07,,,-99.99,,2013-04-09 11:02:00,
2013-04-09 05:11:00,9.0,7.0,-100.00,NW,319,14.0,17.0,91,0.11,,,-99.99,,2013-04-09 11:11:00,
2013-04-09 05:22:00,9.0,7.0,-100.00,NW,320,14.0,17.0,91,0.07,,,-99.99,,2013-04-09 11:22:00,
2013-04-09 05:32:00,9.0,7.0,-100.00,NW,326,14.0,16.0,91,0.06,,,-99.99,,2013-04-09 11:32:00,
2013-04-09 05:42:00,9.0,7.0,-100.00,NW,325,13.0,16.0,91,0.07,,,-99.99,,2013-04-09 11:42:00,
2013-04-09 05:51:00,9.0,7.0,-100.00,NW,326,13.0,17.0,91,0.06,,,-99.99,,2013-04-09 11:51:00,
2013-04-09 06:01:00,9.0,7.0,-100.00,NW,320,14.0,17.0,91,0.10,,,-99.99,,2013-04-09 12:01:00,
2013-04-09 06:12:00,9.0,7.0,-100.00,NW,323,13.0,17.0,91,0.07,,,-99.99,,2013-04-09 12:12:00,
2013-04-09 06:21:00,9.0,7.0,-100.00,NW,320,14.0,17.0,91,0.10,,,-99.99,,2013-04-09 12:21:00,
2013-04-09 06:32:00,9.0,7.0,-100.00,NW,323,12.0,16.0,91,0.06,,,-99.99,,2013-04-09 12:32:00,
2013-04-09 06:42:00,9.0,7.0,-100.00,NW,322,11.0,14.0,91,0.04,,,-99.99,,2013-04-09 12:42:00,
2013-04-09 06:52:00,9.0,7.0,-100.00,NW,315,13.0,15.0,91,0.06,,,-99.99,,2013-04-09 12:52:00,
2013-04-09 07:02:00,9.0,7.0,-100.00,NW,316,12.0,14.0,91,0.06,,,-99.99,,2013-04-09 13:02:00,
2013-04-09 07:11:00,9.0,6.0,-100.00,NW,312,14.0,16.0,91,0.06,,,-99.99,,2013-04-09 13:11:00,
2013-04-09 07:22:00,9.0,6.0,-100.00,NW,313,14.0,17.0,91,0.07,,,-99.99,,2013-04-09 13:22:00,
2013-04-09 07:32:00,8.0,6.0,-100.00,NNW,329,15.0,19.0,91,0.04,,,-99.99,,2013-04-09 13:32:00,
2013-04-09 07:41:00,8.0,6.0,-100.00,NNW,328,14.0,17.0,91,0.06,,,-99.99,,2013-04-09 13:41:00,
2013-04-09 07:52:00,8.0,6.0,-100.00,NW,326,16.0,21.0,91,0.06,,,-99.99,,2013-04-09 13:52:00,
2013-04-09 08:02:00,8.0,6.0,-100.00,NNW,333,16.0,19.0,91,0.06,,,-99.99,,2013-04-09 14:02:00,
2013-04-09 08:11:00,8.0,6.0,-100.00,NNW,333,16.0,21.0,90,0.04,,,-99.99,,2013-04-09 14:11:00,
2013-04-09 08:21:00,8.0,6.0,-100.00,NNW,335,17.0,23.0,90,0.06,,,-99.99,,2013-04-09 14:21:00,
2013-04-09 08:32:00,8.0,6.0,-100.00,NNW,333,14.0,19.0,90,0.07,,,-99.99,,2013-04-09 14:32:00,
2013-04-09 08:41:00,8.0,6.0,-100.00,NNW,336,17.0,21.0,90,0.08,,,-99.99,,2013-04-09 14:41:00,
2013-04-09 08:51:00,8.0,6.0,-100.00,NW,326,16.0,20.0,91,0.07,,,-99.99,,2013-04-09 14:51:00,
2013-04-09 09:01:00,8.0,6.0,-100.00,NNW,339,14.0,18.0,90,0.08,,,-99.99,,2013-04-09 15:01:00,
2013-04-09 09:11:00,8.0,6.0,-100.00,North,4,9.0,16.0,90,0.04,,,-99.99,,2013-04-09 15:11:00,
2013-04-09 09:21:00,8.0,6.0,-100.00,NNW,344,6.0,11.0,91,0.03,,,-99.99,,2013-04-09 15:21:00,
2013-04-09 09:32:00,8.0,6.0,-100.00,NNW,343,7.0,13.0,90,0.03,,,-99.99,,2013-04-09 15:32:00,
2013-04-09 09:42:00,8.0,6.0,-100.00,NNW,330,12.0,14.0,90,0.04,,,-99.99,,2013-04-09 15:42:00,
2013-04-09 09:52:00,8.0,6.0,-100.00,NNW,333,11.0,15.0,91,0.04,,,-99.99,,2013-04-09 15:52:00,
2013-04-09 10:03:00,8.0,6.0,-100.00,NW,322,11.0,13.0,91,0.01,,,-99.99,,2013-04-09 16:03:00,
2013-04-09 10:12:00,8.0,6.0,-100.00,NW,323,13.0,14.0,90,0.04,,,-99.99,,2013-04-09 16:12:00,
2013-04-09 10:22:00,9.0,6.0,-100.00,NW,323,14.0,19.0,91,0.03,,,-99.99,,2013-04-09 16:22:00,
2013-04-09 10:32:00,9.0,7.0,-100.00,NNW,328,15.0,19.0,91,0.03,,,-99.99,,2013-04-09 16:32:00,
2013-04-09 10:41:00,9.0,7.0,-100.00,NNW,335,16.0,21.0,91,0.04,,,-99.99,,2013-04-09 16:41:00,
2013-04-09 10:52:00,9.0,7.0,-100.00,NNW,332,14.0,17.0,91,0.04,,,-99.99,,2013-04-09 16:52:00,
2013-04-09 11:02:00,9.0,7.0,-100.00,NNW,335,16.0,19.0,91,0.04,,,-99.99,,2013-04-09 17:02:00,
2013-04-09 11:12:00,9.0,7.0,-100.00,NNW,328,16.0,19.0,91,0.04,,,-99.99,,2013-04-09 17:12:00,
2013-04-09 11:22:00,9.0,8.0,-100.00,NNW,328,17.0,20.0,91,0.06,,,-99.99,,2013-04-09 17:22:00,
2013-04-09 11:32:00,10.0,8.0,-100.00,NW,322,17.0,20.0,91,0.04,,,-99.99,,2013-04-09 17:32:00,
2013-04-09 11:42:00,10.0,8.0,-100.00,NNW,328,16.0,20.0,91,0.01,,,-99.99,,2013-04-09 17:42:00,
2013-04-09 11:53:00,10.0,8.0,-100.00,NNW,333,14.0,19.0,92,0.03,,,-99.99,,2013-04-09 17:53:00,
2013-04-09 12:02:00,10.0,8.0,-100.00,NNW,333,15.0,19.0,91,0.03,,,-99.99,,2013-04-09 18:02:00,
2013-04-09 12:11:00,10.0,8.0,-100.00,NNW,332,16.0,21.0,91,0.06,,,-99.99,,2013-04-09 18:11:00,
2013-04-09 12:22:00,10.0,8.0,-100.00,NNW,329,16.0,18.0,92,0.08,,,-99.99,,2013-04-09 18:22:00,
2013-04-09 12:32:00,11.0,9.0,-100.00,NNW,332,17.0,22.0,91,0.03,,,-99.99,,2013-04-09 18:32:00,
2013-04-09 12:42:00,11.0,9.0,-100.00,NNW,333,17.0,21.0,91,0.01,,,-99.99,,2013-04-09 18:42:00,
2013-04-09 12:52:00,11.0,9.0,-100.00,NNW,335,15.0,19.0,92,0.03,,,-99.99,,2013-04-09 18:52:00,
2013-04-09 13:02:00,11.0,9.0,-100.00,NNW,333,16.0,19.0,91,0.03,,,-99.99,,2013-04-09 19:02:00,
2013-04-09 13:11:00,11.0,9.0,-100.00,NNW,333,16.0,19.0,91,0.03,,,-99.99,,2013-04-09 19:11:00,
2013-04-09 13:21:00,11.0,9.0,-100.00,NNW,333,16.0,19.0,92,0.01,,,-99.99,,2013-04-09 19:21:00,
2013-04-09 13:32:00,11.0,9.0,-100.00,NNW,336,15.0,20.0,92,0.01,,,-99.99,,2013-04-09 19:32:00,
2013-04-09 13:41:00,11.0,9.0,-100.00,NNW,336,15.0,20.0,92,0.01,,,-99.99,,2013-04-09 19:41:00,
2013-04-09 13:52:00,11.0,9.0,-100.00,NNW,333,16.0,21.0,92,0.03,,,-99.99,,2013-04-09 19:52:00,
2013-04-09 14:02:00,12.0,10.0,-100.00,NNW,335,16.0,19.0,92,0.01,,,-99.99,,2013-04-09 20:02:00,
2013-04-09 14:11:00,12.0,10.0,-100.00,NNW,337,12.0,21.0,91,0.03,,,-99.99,,2013-04-09 20:11:00,
2013-04-09 14:21:00,11.0,9.0,-100.00,NNW,333,16.0,19.0,92,0.04,,,-99.99,,2013-04-09 20:21:00,
2013-04-09 14:32:00,12.0,10.0,-100.00,NNW,335,14.0,19.0,92,0.03,,,-99.99,,2013-04-09 20:32:00,
2013-04-09 14:42:00,12.0,10.0,-100.00,NNW,332,12.0,20.0,92,0.03,,,-99.99,,2013-04-09 20:42:00,
2013-04-09 14:52:00,12.0,10.0,-100.00,NNW,329,15.0,18.0,92,0.06,,,-99.99,,2013-04-09 20:52:00,
2013-04-09 15:02:00,12.0,10.0,-100.00,NNW,329,13.0,17.0,92,0.03,,,-99.99,,2013-04-09 21:02:00,
2013-04-09 15:21:00,13.0,11.0,-100.00,NNW,337,11.0,19.0,92,0.06,,,-99.99,,2013-04-09 21:21:00,
2013-04-09 15:32:00,12.0,11.0,-100.00,NNW,347,10.0,15.0,92,0.06,,,-99.99,,2013-04-09 21:32:00,
2013-04-09 15:42:00,12.0,11.0,-100.00,NNW,347,10.0,15.0,92,0.06,,,-99.99,,2013-04-09 21:42:00,
2013-04-09 15:52:00,13.0,11.0,-100.00,NNW,339,13.0,20.0,92,0.07,,,-99.99,,2013-04-09 21:52:00,
2013-04-09 16:02:00,13.0,12.0,-100.00,NNW,332,13.0,17.0,92,0.08,,,-99.99,,2013-04-09 22:02:00,
2013-04-09 16:12:00,14.0,12.0,-100.00,NNW,329,15.0,19.0,92,0.04,,,-99.99,,2013-04-09 22:12:00,
2013-04-09 16:22:00,13.0,12.0,-100.00,NW,319,15.0,17.0,92,0.01,,,-99.99,,2013-04-09 22:22:00,
2013-04-09 16:32:00,13.0,12.0,-100.00,NW,316,14.0,17.0,92,0.01,,,-99.99,,2013-04-09 22:32:00,
2013-04-09 16:42:00,13.0,11.0,-100.00,NW,318,14.0,16.0,92,0.01,,,-99.99,,2013-04-09 22:42:00,
2013-04-09 16:52:00,13.0,11.0,-100.00,NW,322,13.0,16.0,92,0.01,,,-99.99,,2013-04-09 22:52:00,
2013-04-09 17:02:00,13.0,11.0,-100.00,NW,320,13.0,17.0,92,0.04,,,-99.99,,2013-04-09 23:02:00,
2013-04-09 17:12:00,13.0,11.0,-100.00,NW,318,14.0,16.0,92,0.03,,,-99.99,,2013-04-09 23:12:00,
2013-04-09 17:22:00,13.0,11.0,-100.00,NW,326,15.0,17.0,93,0.04,,,-99.99,,2013-04-09 23:22:00,
2013-04-09 17:32:00,13.0,11.0,-100.00,NNW,336,12.0,14.0,92,0.06,,,-99.99,,2013-04-09 23:32:00,
2013-04-09 17:42:00,13.0,11.0,-100.00,NNW,333,12.0,14.0,92,0.08,,,-99.99,,2013-04-09 23:42:00,
2013-04-09 17:52:00,13.0,11.0,-100.00,NNW,335,12.0,16.0,92,0.06,,,-99.99,,2013-04-09 23:52:00,
2013-04-09 18:02:00,13.0,11.0,-100.00,NNW,333,12.0,15.0,92,0.04,,,-99.99,,2013-04-10 00:02:00,
2013-04-09 18:11:00,13.0,11.0,-100.00,NNW,333,12.0,15.0,92,0.04,,,-99.99,,2013-04-10 00:11:00,
2013-04-09 18:21:00,13.0,11.0,-100.00,NNW,330,12.0,14.0,92,0.03,,,-99.99,,2013-04-10 00:21:00,
2013-04-09 18:32:00,13.0,11.0,-100.00,NNW,332,11.0,13.0,93,0.04,,,-99.99,,2013-04-10 00:32:00,
2013-04-09 18:41:00,13.0,11.0,-100.00,NNW,335,11.0,13.0,92,0.04,,,-99.99,,2013-04-10 00:41:00,
2013-04-09 18:51:00,12.0,10.0,-100.00,North,353,7.0,12.0,92,0.04,,,-99.99,,2013-04-10 00:51:00,
2013-04-09 19:01:00,12.0,10.0,-100.00,NNE,18,6.0,10.0,92,0.06,,,-99.99,,2013-04-10 01:01:00,
2013-04-09 19:11:00,12.0,10.0,-100.00,NNE,16,6.0,9.0,92,0.06,,,-99.99,,2013-04-10 01:11:00,
2013-04-09 19:22:00,12.0,10.0,-100.00,North,11,7.0,9.0,92,0.01,,,-99.99,,2013-04-10 01:22:00,
2013-04-09 19:31:00,11.0,10.0,-100.00,North,11,6.0,9.0,92,0.01,,,-99.99,,2013-04-10 01:31:00,
2013-04-09 19:41:00,11.0,10.0,-100.00,North,3,3.0,6.0,92,0.01,,,-99.99,,2013-04-10 01:41:00,
2013-04-09 19:52:00,11.0,9.0,-100.00,North,10,6.0,9.0,92,0.00,,,-99.99,,2013-04-10 01:52:00,
2013-04-09 20:01:00,11.0,9.0,-100.00,NNE,20,6.0,7.0,92,0.01,,,-99.99,,2013-04-10 02:01:00,
2013-04-09 20:11:00,11.0,9.0,-100.00,ENE,73,4.0,7.0,92,0.01,,,-99.99,,2013-04-10 02:11:00,
2013-04-09 20:21:00,11.0,9.0,-100.00,NNE,20,4.0,7.0,92,0.00,,,-99.99,,2013-04-10 02:21:00,
2013-04-09 20:32:00,11.0,9.0,-100.00,NNE,16,6.0,7.0,91,0.00,,,-99.99,,2013-04-10 02:32:00,
2013-04-09 20:42:00,11.0,9.0,-100.00,NE,34,2.0,4.0,92,0.00,,,-99.99,,2013-04-10 02:42:00,
2013-04-09 20:51:00,11.0,9.0,-100.00,NNE,23,4.0,6.0,91,0.01,,,-99.99,,2013-04-10 02:51:00,
2013-04-09 21:02:00,11.0,9.0,-100.00,NNE,25,5.0,7.0,91,0.00,,,-99.99,,2013-04-10 03:02:00,
2013-04-09 21:11:00,11.0,9.0,-100.00,North,10,5.0,6.0,92,0.01,,,-99.99,,2013-04-10 03:11:00,
2013-04-09 21:21:00,11.0,9.0,-100.00,NNE,16,4.0,6.0,92,0.01,,,-99.99,,2013-04-10 03:21:00,
2013-04-09 21:32:00,11.0,9.0,-100.00,North,359,4.0,6.0,92,0.01,,,-99.99,,2013-04-10 03:32:00,
2013-04-09 21:43:00,11.0,9.0,-100.00,NNE,14,4.0,5.0,91,0.01,,,-99.99,,2013-04-10 03:43:00,
2013-04-09 21:52:00,11.0,9.0,-100.00,North,4,3.0,4.0,92,0.03,,,-99.99,,2013-04-10 03:52:00,
2013-04-09 22:02:00,11.0,9.0,-100.00,NE,35,2.0,4.0,91,0.03,,,-99.99,,2013-04-10 04:02:00,
2013-04-09 22:12:00,11.0,9.0,-100.00,NW,318,2.0,6.0,92,0.01,,,-99.99,,2013-04-10 04:12:00,
2013-04-09 22:22:00,11.0,9.0,-100.00,NW,318,1.0,3.0,92,0.04,,,-99.99,,2013-04-10 04:22:00,
2013-04-09 22:33:00,11.0,9.0,-100.00,WNW,284,2.0,4.0,92,0.03,,,-99.99,,2013-04-10 04:33:00,
2013-04-09 22:42:00,11.0,9.0,-100.00,WNW,301,2.0,3.0,91,0.01,,,-99.99,,2013-04-10 04:42:00,
2013-04-09 22:52:00,11.0,8.0,-100.00,WNW,296,1.0,2.0,91,0.01,,,-99.99,,2013-04-10 04:52:00,
2013-04-09 23:02:00,10.0,8.0,-100.00,WSW,254,1.0,1.0,91,0.00,,,-99.99,,2013-04-10 05:02:00,
2013-04-09 23:12:00,10.0,8.0,-100.00,SW,233,0.0,0.0,91,0.01,,,-99.99,,2013-04-10 05:12:00,
2013-04-09 23:22:00,9.0,8.0,-100.00,SW,223,0.0,0.0,91,0.00,,,-99.99,,2013-04-10 05:22:00,
2013-04-09 23:32:00,10.0,8.0,-100.00,SW,223,0.0,0.0,91,0.00,,,-99.99,,2013-04-10 05:32:00,
2013-04-09 23:42:00,10.0,8.0,-100.00,SW,223,0.0,0.0,91,0.00,,,-99.99,,2013-04-10 05:42:00,
2013-04-09 23:52:00,10.0,8.0,-100.00,SW,220,0.0,0.0,92,0.00,,,-99.99,,2013-04-10 05:52:00,